SCP
0 0 0 0 0 0 0 0 0 0 0 0 -0 0 0 0 0 0 -0 -0 -1 -1 -0 -0 -0 -0 -0 -0 -0 -0 -0 -0 -0 -0 -0 0 -0 -0 -0 -0 -0 -0 -0 -0 -0 -0 -0 -0 0
0 0 0 0 0 0 0 0 0 0 0 0 0 -0 -0 -0 -0 0 0 0 -0 -0 -0 -0 -0 -0 -0 -0 -0 -0 -0 -0 0 0 0 0 0 0 -0 -0 -0 -0 -0 -0 -0 -0 -0 -0 -0
0 0 0 0 0 0 0 0 0 0 0 0 0 0 0 0 0 0 0 0 -0 0 -0 0 -0 -0 -0 0 0 0 -0 0 0 0 0 0 0 0 0 0 -0 -0 -0 -0 -0 -0 -0 -0 -0
0 0 0 0 0 0 0 0 0 0 0 0 0 0 0 0 0 0 0 0 -0 -0 0 0 -0 -0 -0 0 0 0 0 0 0 0 0 0 0 0 0 0 0 0 -0 -0 -0 -0 -0 0 -0
0 0 0 0 0 0 0 0 0 0 0 0 0 0 0 0 0 0 0 0 0 0 0 0 0 0 0 0 0 0 0 0 0 0 0 0 0 0 0 0 0 0 0 -0 -0 -0 -0 0 -0
0 0 0 0 0 0 0 0 0 0 0 0 0 0 0 0 0 0 0 0 0 1 1 0 0 0 0 0 0 0 0 0 0 0 0 0 0 0 0 0 0 0 0 0 0 0 0 0 -0
0 0 0 0 0 0 0 0 0 0 0 0 0 0 0 0 0 0 0 0 -0 1 1 -0 -0 0 0 0 0 0 0 0 0 0 0 0 0 0 0 0 0 0 0 0 0 0 0 0 0
0 0 0 0 0 0 0 0 -0 0 0 0 0 0 0 0 0 0 0 0 -0 1 -0 -0 -0 0 1 1 1 1 1 1 1 0 0 0 0 0 0 0 0 0 0 0 0 0 0 0 0
0 0 0 0 0 0 -0 0 0 0 0 0 0 0 0 0 0 0 0 0 0 1 1 0 -1 -0 0 1 1 1 1 1 1 1 1 1 1 1 0 0 0 0 0 0 0 0 0 0 0
0 0 0 -0 0 0 0 0 0 0 0 0 0 0 0 0 0 0 0 0 0 0 0 0 1 0 -0 -0 1 1 1 1 1 1 1 1 1 1 1 1 0 0 0 0 0 0 0 0 0
0 0 0 -0 -0 0 0 0 0 0 0 0 0 0 0 0 0 0 0 0 0 0 0 0 0 0 0 0 1 2 1 1 1 1 1 1 1 0 1 1 1 1 1 1 0 0 0 0 0
0 0 0 0 -0 0 0 0 0 0 0 0 0 0 0 0 0 0 0 0 0 0 0 0 0 0 0 0 0 2 1 2 2 1 1 1 0 0 0 0 1 1 1 1 0 0 0 0 0
0 0 0 0 0 0 0 0 0 0 0 0 0 0 0 0 0 0 0 0 0 0 0 0 0 0 0 0 0 0 1 1 1 2 1 1 0 0 0 0 1 1 1 1 0 0 0 0 0
0 0 0 0 0 0 0 0 0 0 0 0 0 0 0 0 0 0 0 0 0 0 0 0 0 0 0 0 0 0 0 0 1 1 2 2 2 1 1 0 1 1 1 1 0 0 0 0 0
0 0 0 0 0 0 0 0 0 0 0 0 0 0 0 0 0 0 0 0 0 0 0 0 0 0 0 0 0 0 0 0 -0 0 1 1 2 2 1 1 0 1 1 1 0 0 0 0 0
0 0 0 0 0 0 0 0 0 0 0 0 0 0 0 0 0 0 0 0 0 0 0 0 0 0 -0 -0 -0 -0 -0 0 0 -0 -0 0 1 2 1 1 0 0 1 0 0 0 0 0 0
0 0 0 0 0 0 0 0 0 0 0 0 0 0 0 0 0 0 0 0 0 0 0 0 0 0 0 0 0 0 0 0 0 0 0 -0 0 1 2 1 1 0 0 0 0 0 0 0 0
0 0 0 0 0 0 0 0 0 0 0 0 0 0 0 0 0 0 0 0 0 0 0 0 0 0 0 0 0 0 0 0 0 0 0 0 -0 0 1 1 0 0 0 0 0 0 0 0 0
0 0 0 0 0 0 0 0 0 0 0 0 0 0 0 0 0 0 0 0 0 0 0 0 0 0 0 0 0 0 0 0 0 0 0 1 0 -0 0 1 1 1 0 0 0 0 0 0 0
0 0 0 0 0 0 0 0 -0 0 0 0 0 0 0 0 0 0 0 0 0 0 0 0 0 0 0 0 0 0 0 0 0 0 0 0 0 0 0 0 0 1 1 0 1 1 1 0 0
0 0 0 0 0 0 0 0 -0 0 0 0 0 0 0 0 0 0 0 0 0 0 0 0 0 0 0 0 0 0 0 0 0 0 0 0 0 0 0 0 0 1 1 0 1 1 1 0 0
0 0 0 0 0 0 0 0 -0 -0 0 0 0 0 0 0 0 0 0 0 0 0 0 0 0 0 0 0 0 0 0 0 0 0 -0 0 0 0 0 -0 -0 0 1 1 1 1 1 0 0
0 0 0 0 0 0 -0 0 0 0 0 0 0 0 0 0 0 0 0 0 0 0 0 0 0 0 0 0 0 0 0 0 0 0 0 0 0 -0 0 0 -0 -0 0 1 0 1 1 0 0
0 0 0 0 0 0 0 0 0 0 0 0 0 0 0 0 0 0 0 0 0 0 0 0 0 0 0 0 0 0 0 0 0 0 0 0 -0 -0 -0 0 0 -0 0 0 1 1 1 0 0
0 0 0 0 0 0 0 0 0 0 0 0 0 0 0 0 0 0 0 0 0 0 0 0 0 0 0 0 0 0 0 0 0 0 0 0 -0 -0 -0 0 0 1 1 1 0 1 1 1 0
0 0 0 0 0 0 0 0 0 0 0 0 0 0 0 0 0 0 0 0 0 0 0 0 0 0 0 0 0 0 0 0 0 0 0 0 0 -0 0 0 0 0 1 2 0 2 1 1 1
0 0 0 0 0 0 0 0 0 0 0 0 0 0 0 0 0 0 0 0 0 0 0 0 0 0 0 0 0 0 -0 -0 0 0 0 0 0 0 0 0 1 0 0 0 1 1 1 1 0
0 0 0 0 0 0 0 0 0 0 0 0 0 0 0 0 0 0 0 0 0 0 0 0 0 0 0 0 0 0 0 -0 -0 0 0 0 0 0 0 0 1 1 0 0 0 1 1 1 0
0 0 0 0 0 0 0 0 0 0 0 0 0 0 0 0 0 0 0 0 0 0 0 0 0 0 0 0 0 0 0 -0 -0 -0 -0 -0 0 0 -0 1 1 0 0 0 0 1 1 1 0
0 0 0 0 0 0 0 0 0 0 0 0 0 0 0 0 0 0 0 0 0 0 0 0 0 0 0 0 0 0 0 0 0 -0 -0 -0 0 0 0 1 1 0 0 0 0 0 2 1 1
Wind_Speed_500mb
6 1 8 18 7 7 10 6 10 22 15 60 57 52 43 34 15 10 17 22 27 7 8 17 19 25 26 25 21 17 14 17 20 25 28 32 35 38 41 41 35 31 29 28 27 29 30 29 30
4 3 6 8 6 6 9 9 23 18 40 34 48 64 54 27 35 31 30 17 25 11 4 4 21 23 27 25 24 19 14 11 14 21 26 31 33 37 39 39 34 29 28 26 25 25 27 24 27
11 6 6 7 7 10 6 8 11 34 53 37 15 43 25 34 34 12 23 27 20 13 8 19 16 20 25 27 23 21 18 14 10 14 23 29 32 34 36 36 34 28 27 24 23 23 25 22 22
10 6 10 2 15 10 16 7 12 20 51 47 29 23 59 34 24 18 20 34 10 12 13 10 4 19 21 27 26 22 20 18 14 13 19 27 32 33 35 35 32 28 26 23 21 21 22 22 20
11 13 3 8 11 5 14 20 35 22 24 55 36 25 53 44 30 26 20 30 15 9 8 10 7 2 22 23 26 26 22 21 21 17 17 25 32 35 35 36 35 31 26 22 20 20 21 21 19
9 7 5 8 2 9 11 28 44 31 50 33 32 25 36 37 33 31 25 21 26 13 4 1 6 8 4 25 26 27 27 24 25 24 21 24 30 36 38 37 38 35 30 25 23 22 22 21 19
8 4 10 12 12 11 3 28 25 16 33 28 9 5 27 46 37 28 22 16 41 5 7 7 6 7 8 20 31 32 31 30 29 29 28 27 30 36 40 40 39 39 36 30 27 26 25 23 20
24 5 12 9 1 10 4 40 40 33 16 12 9 8 11 32 33 30 20 20 46 20 17 9 7 10 21 25 27 39 37 35 35 34 34 32 33 36 41 43 42 42 40 36 32 29 27 25 22
16 5 9 7 10 6 29 14 25 17 9 9 17 33 25 25 28 28 27 18 43 48 24 21 15 24 23 27 16 38 40 39 38 42 42 40 40 40 43 47 46 46 44 41 38 34 31 28 25
9 6 4 9 12 9 20 11 19 10 15 5 25 21 19 23 23 23 27 24 28 35 37 38 3 13 19 22 19 21 38 41 42 45 48 48 47 45 45 48 51 51 48 45 43 40 36 34 28
5 9 3 10 18 14 9 8 15 4 2 15 19 18 16 16 12 14 18 19 22 29 24 24 16 20 6 17 14 34 32 32 44 48 53 54 53 52 52 54 58 58 56 54 50 48 44 38 31
5 19 9 4 15 5 8 7 7 13 4 3 10 5 6 8 7 4 9 12 16 22 22 21 28 23 22 25 25 15 37 47 50 44 58 61 60 60 60 59 61 62 64 61 58 53 47 41 36
11 18 11 8 10 9 7 5 12 21 14 19 17 4 4 6 8 9 7 4 8 16 22 31 33 33 35 35 30 30 28 33 48 53 55 67 69 69 67 65 63 64 64 66 64 60 53 46 39
9 17 21 18 15 12 10 10 11 24 11 16 10 3 5 3 3 6 6 7 6 11 20 27 31 33 43 44 41 43 40 53 46 47 64 65 73 78 74 71 71 67 66 63 69 67 60 53 46
11 6 18 27 34 12 17 10 13 31 23 15 6 10 5 11 8 7 9 13 17 18 25 29 37 40 44 48 52 45 50 49 55 60 47 68 73 75 84 83 78 76 70 66 58 68 60 54 49
11 7 6 19 21 17 22 16 18 22 19 17 13 14 13 12 5 3 10 18 24 26 31 41 45 49 56 60 63 67 64 61 58 66 73 57 63 83 76 91 89 83 78 70 58 62 64 56 53
9 9 13 13 28 15 12 12 16 27 31 17 19 17 26 24 12 2 4 14 23 32 40 43 50 55 52 55 58 60 63 66 63 56 68 90 71 65 95 84 95 88 85 77 73 66 69 65 65
5 5 10 4 3 3 17 15 19 42 41 20 19 30 30 20 9 4 12 17 26 33 40 48 51 56 62 63 60 59 58 60 62 63 59 64 86 77 83 103 85 91 87 88 81 75 74 76 68
5 7 14 14 17 11 17 16 14 23 33 34 27 41 33 23 9 4 6 17 26 36 45 46 50 57 57 64 61 65 72 75 75 71 64 57 57 62 83 92 104 97 94 106 89 86 83 80 77
5 7 11 16 18 9 15 20 18 16 23 45 39 47 36 26 15 13 13 21 27 27 34 44 51 55 55 61 68 75 65 76 71 64 65 66 74 69 79 94 109 107 105 104 108 90 86 85 76
9 8 12 19 10 11 15 20 34 30 45 48 44 48 36 28 21 11 14 19 29 40 45 44 44 48 52 55 66 68 75 83 81 80 71 65 67 61 74 107 93 118 124 113 117 97 105 90 76
10 15 17 9 12 7 12 12 27 32 10 26 47 42 35 30 19 7 9 27 32 33 38 44 53 55 44 52 62 68 74 79 78 81 89 80 77 82 80 91 140 89 128 122 118 113 106 104 95
16 14 11 9 12 13 25 10 15 18 16 20 29 49 41 28 19 4 13 23 33 38 43 50 53 50 62 49 56 64 73 70 73 81 93 88 87 91 79 101 108 144 118 123 113 119 108 109 99
11 10 17 10 4 8 38 17 17 12 22 27 15 49 41 24 2 5 17 32 44 47 51 55 61 62 61 66 62 62 68 74 77 82 88 90 92 98 77 85 100 87 100 95 119 116 112 102 95
8 6 6 6 4 13 9 13 28 12 18 27 27 43 27 8 3 12 26 38 41 42 43 50 56 61 63 64 66 66 63 70 75 78 91 85 94 102 77 74 91 73 87 109 99 107 114 105 108
16 19 10 10 6 7 13 11 5 20 38 50 39 23 13 4 10 17 26 30 34 38 46 56 61 64 66 67 68 66 60 63 71 74 84 84 93 101 78 77 88 86 89 122 71 101 107 110 108
7 11 12 6 10 4 10 6 6 16 17 24 27 25 16 8 7 14 24 30 36 43 47 56 65 69 75 76 74 71 70 67 64 71 76 90 93 91 74 75 78 78 91 110 79 95 101 99 113
7 3 7 3 6 10 10 14 8 12 12 12 11 3 4 1 6 15 21 26 30 35 50 66 67 75 76 68 65 65 71 73 76 73 76 80 92 83 72 73 79 90 87 113 110 100 101 109 102
6 4 6 7 9 9 3 11 11 12 16 14 12 22 19 12 6 9 14 24 34 48 63 69 70 70 79 74 72 69 70 73 70 73 76 75 84 77 68 55 73 78 92 112 91 110 115 115 105
18 20 18 9 9 9 5 12 11 16 11 5 19 33 11 4 5 9 19 31 44 58 65 67 62 78 69 65 63 72 72 71 65 65 65 68 70 71 69 48 68 74 108 116 128 94 124 123 115
Wind_Direction_500mb
251 172 18 336 28 76 311 42 129 44 48 79 82 91 86 80 68 118 28 1 6 23 110 161 164 155 150 148 147 147 143 132 136 149 153 151 151 154 156 156 154 148 145 139 137 136 132 125 112
260 105 320 286 93 45 292 9 70 60 45 66 87 94 83 90 83 55 30 30 4 21 77 61 175 170 158 157 153 156 163 151 142 154 159 160 158 160 162 161 159 155 152 146 145 144 140 130 117
104 328 301 152 191 176 149 20 35 83 58 46 27 69 83 105 69 61 42 28 3 74 70 50 189 188 172 165 164 165 175 177 168 166 169 169 167 167 170 171 167 164 159 158 155 155 150 139 123
22 309 263 100 260 304 133 63 22 69 59 46 81 69 76 90 70 55 72 43 1 38 39 25 91 211 198 179 173 180 185 192 196 189 185 181 178 177 179 181 179 174 167 168 167 169 164 153 135
319 262 251 241 268 109 53 40 62 66 57 68 71 72 73 62 67 64 72 34 350 358 28 5 340 226 224 207 192 189 197 202 207 207 203 197 190 187 188 191 191 189 183 182 183 182 182 172 155
290 248 340 269 143 94 44 50 66 60 62 52 49 65 72 42 38 44 45 40 2 315 335 143 42 23 282 236 221 207 203 210 215 217 216 211 203 198 197 199 200 200 200 197 198 197 195 189 175
207 36 258 293 118 57 87 75 70 64 62 55 66 5 56 37 40 41 45 56 359 301 354 145 74 22 338 327 250 228 215 211 216 222 225 221 214 208 206 206 208 208 211 211 207 207 204 202 193
248 94 300 311 156 120 116 72 71 60 59 31 27 47 32 30 34 40 61 31 38 28 45 28 44 10 0 336 242 234 228 219 215 220 229 230 224 217 213 212 214 214 216 218 216 215 214 211 205
255 13 304 27 66 67 51 59 70 79 86 54 85 70 47 19 28 30 24 20 46 36 17 11 18 7 354 349 280 224 234 231 225 219 224 231 229 225 220 217 217 216 218 220 220 221 219 217 214
162 130 314 85 62 32 62 51 92 64 23 337 70 58 33 8 18 18 18 352 6 28 47 58 95 1 1 350 327 267 245 242 238 229 227 229 231 229 229 224 222 222 222 223 224 224 225 219 217
224 188 43 87 80 38 9 62 59 55 289 90 71 57 25 5 356 356 19 23 340 351 358 18 31 36 24 236 277 284 285 267 252 244 235 233 234 233 231 227 224 225 225 225 226 224 225 222 214
24 301 139 148 101 63 317 61 336 291 182 150 94 59 333 298 329 357 321 338 346 318 312 342 355 329 308 319 279 290 272 274 269 269 251 240 238 236 236 234 230 230 230 230 229 229 228 224 215
195 267 192 216 232 203 246 341 263 301 283 132 123 162 261 300 67 31 80 109 305 312 307 292 302 325 321 302 294 286 275 259 263 267 269 251 241 240 238 237 237 234 233 233 234 232 229 224 215
330 335 314 305 280 235 173 240 335 262 166 131 149 189 247 99 78 128 33 25 340 323 309 292 283 285 283 291 287 277 273 258 260 251 261 264 253 242 239 236 238 241 240 237 236 233 229 223 211
252 318 297 267 235 208 99 317 232 261 172 148 187 231 156 129 102 33 347 317 310 306 300 285 279 275 276 278 282 279 275 271 274 262 255 257 259 253 241 237 235 240 240 240 243 233 227 217 204
297 274 272 263 192 162 123 269 287 145 171 188 202 149 140 115 113 330 327 323 308 297 298 297 291 284 287 285 281 281 282 281 275 275 264 249 245 250 252 238 235 235 239 237 236 229 219 213 207
249 244 215 281 156 149 134 205 253 282 284 230 182 173 145 125 120 82 319 288 289 295 301 303 306 308 304 297 293 289 284 283 289 285 275 271 246 245 246 248 236 234 230 231 233 225 217 210 208
345 207 308 327 301 187 222 227 221 242 258 249 204 165 149 143 139 337 304 294 306 311 309 309 306 306 309 307 302 302 294 294 291 290 293 275 273 241 250 246 243 230 230 226 228 225 220 218 209
49 323 308 303 299 318 284 273 272 281 281 263 237 159 157 160 184 231 259 312 315 317 314 309 310 310 306 302 302 304 301 298 295 289 282 282 284 283 237 232 241 234 230 227 224 222 220 215 213
320 319 282 286 284 295 325 301 282 251 245 261 218 163 162 164 184 225 300 302 319 327 321 318 315 311 304 298 298 301 302 297 297 292 287 280 274 273 268 252 242 239 228 229 223 222 216 211 208
288 247 271 259 310 333 329 291 272 256 252 236 191 167 168 172 193 225 294 298 310 317 310 307 319 320 304 295 295 299 302 295 290 290 287 278 275 268 268 257 253 235 229 223 223 218 217 206 202
269 268 276 339 11 280 43 285 294 286 229 154 159 165 171 186 179 228 276 310 321 328 321 312 300 300 318 308 302 302 304 301 288 292 295 291 290 283 265 266 248 259 223 217 221 218 217 215 209
239 48 5 0 323 333 274 269 270 250 196 181 173 179 184 160 159 214 305 322 323 314 311 310 307 296 297 310 312 306 309 297 296 294 296 300 294 294 278 258 263 260 223 213 216 217 219 218 214
42 18 333 300 219 283 255 197 274 262 204 176 147 152 140 140 99 292 313 329 317 310 311 307 307 308 301 298 298 310 305 304 298 298 297 299 304 295 285 261 261 272 249 213 212 217 217 216 212
109 90 323 331 174 225 275 213 229 309 122 129 126 124 125 126 176 315 325 331 309 311 310 315 316 311 307 301 301 298 306 301 298 297 300 297 302 295 280 264 254 250 231 228 207 211 217 217 216
199 164 170 232 250 289 293 252 328 86 81 100 108 120 149 159 318 316 334 327 308 311 311 309 311 308 306 305 299 301 300 306 302 297 297 297 293 293 272 263 255 240 236 222 218 219 218 219 220
279 198 217 62 336 332 247 282 73 108 111 131 151 165 169 335 328 351 336 312 313 315 312 311 311 306 306 309 305 304 300 293 299 301 297 295 293 301 274 257 246 243 233 220 217 219 221 221 220
173 64 53 7 214 252 263 246 183 135 163 132 113 204 201 93 284 313 319 313 315 309 313 315 312 310 317 320 315 311 306 299 287 289 291 293 298 303 277 252 251 232 228 208 217 219 217 221 221
169 225 203 159 176 195 310 279 135 110 133 141 207 247 237 198 275 311 322 312 310 315 318 319 317 316 316 314 314 312 309 306 292 282 286 299 302 300 279 261 245 242 217 206 213 215 215 219 219
203 197 180 144 239 217 199 265 44 115 123 178 274 294 137 57 110 350 325 311 315 320 318 322 314 320 319 319 316 315 314 311 302 291 286 295 302 304 307 259 244 240 214 206 209 218 211 218 217
Wind_Speed_850mb
6 1 8 18 7 7 10 6 10 22 15 60 57 52 43 34 15 10 17 22 27 7 8 17 19 25 26 25 21 17 14 17 20 25 28 32 35 38 41 41 35 31 29 28 27 29 30 29 30
4 3 6 8 6 6 9 9 23 18 40 34 48 64 54 27 35 31 30 17 25 11 4 4 21 23 27 25 24 19 14 11 14 21 26 31 33 37 39 39 34 29 28 26 25 25 27 24 27
11 6 6 7 7 10 6 8 11 34 53 37 15 43 25 34 34 12 23 27 20 13 8 19 16 20 25 27 23 21 18 14 10 14 23 29 32 34 36 36 34 28 27 24 23 23 25 22 22
10 6 10 2 15 10 16 7 12 20 51 47 29 23 59 34 24 18 20 34 10 12 13 10 4 19 21 27 26 22 20 18 14 13 19 27 32 33 35 35 32 28 26 23 21 21 22 22 20
11 13 3 8 11 5 14 20 35 22 24 55 36 25 53 44 30 26 20 30 15 9 8 10 7 2 22 23 26 26 22 21 21 17 17 25 32 35 35 36 35 31 26 22 20 20 21 21 19
9 7 5 8 2 9 11 28 44 31 50 33 32 25 36 37 33 31 25 21 26 13 4 1 6 8 4 25 26 27 27 24 25 24 21 24 30 36 38 37 38 35 30 25 23 22 22 21 19
8 4 10 12 12 11 3 28 25 16 33 28 9 5 27 46 37 28 22 16 41 5 7 7 6 7 8 20 31 32 31 30 29 29 28 27 30 36 40 40 39 39 36 30 27 26 25 23 20
24 5 12 9 1 10 4 40 40 33 16 12 9 8 11 32 33 30 20 20 46 20 17 9 7 10 21 25 27 39 37 35 35 34 34 32 33 36 41 43 42 42 40 36 32 29 27 25 22
16 5 9 7 10 6 29 14 25 17 9 9 17 33 25 25 28 28 27 18 43 48 24 21 15 24 23 27 16 38 40 39 38 42 42 40 40 40 43 47 46 46 44 41 38 34 31 28 25
9 6 4 9 12 9 20 11 19 10 15 5 25 21 19 23 23 23 27 24 28 35 37 38 3 13 19 22 19 21 38 41 42 45 48 48 47 45 45 48 51 51 48 45 43 40 36 34 28
5 9 3 10 18 14 9 8 15 4 2 15 19 18 16 16 12 14 18 19 22 29 24 24 16 20 6 17 14 34 32 32 44 48 53 54 53 52 52 54 58 58 56 54 50 48 44 38 31
5 19 9 4 15 5 8 7 7 13 4 3 10 5 6 8 7 4 9 12 16 22 22 21 28 23 22 25 25 15 37 47 50 44 58 61 60 60 60 59 61 62 64 61 58 53 47 41 36
11 18 11 8 10 9 7 5 12 21 14 19 17 4 4 6 8 9 7 4 8 16 22 31 33 33 35 35 30 30 28 33 48 53 55 67 69 69 67 65 63 64 64 66 64 60 53 46 39
9 17 21 18 15 12 10 10 11 24 11 16 10 3 5 3 3 6 6 7 6 11 20 27 31 33 43 44 41 43 40 53 46 47 64 65 73 78 74 71 71 67 66 63 69 67 60 53 46
11 6 18 27 34 12 17 10 13 31 23 15 6 10 5 11 8 7 9 13 17 18 25 29 37 40 44 48 52 45 50 49 55 60 47 68 73 75 84 83 78 76 70 66 58 68 60 54 49
11 7 6 19 21 17 22 16 18 22 19 17 13 14 13 12 5 3 10 18 24 26 31 41 45 49 56 60 63 67 64 61 58 66 73 57 63 83 76 91 89 83 78 70 58 62 64 56 53
9 9 13 13 28 15 12 12 16 27 31 17 19 17 26 24 12 2 4 14 23 32 40 43 50 55 52 55 58 60 63 66 63 56 68 90 71 65 95 84 95 88 85 77 73 66 69 65 65
5 5 10 4 3 3 17 15 19 42 41 20 19 30 30 20 9 4 12 17 26 33 40 48 51 56 62 63 60 59 58 60 62 63 59 64 86 77 83 103 85 91 87 88 81 75 74 76 68
5 7 14 14 17 11 17 16 14 23 33 34 27 41 33 23 9 4 6 17 26 36 45 46 50 57 57 64 61 65 72 75 75 71 64 57 57 62 83 92 104 97 94 106 89 86 83 80 77
5 7 11 16 18 9 15 20 18 16 23 45 39 47 36 26 15 13 13 21 27 27 34 44 51 55 55 61 68 75 65 76 71 64 65 66 74 69 79 94 109 107 105 104 108 90 86 85 76
9 8 12 19 10 11 15 20 34 30 45 48 44 48 36 28 21 11 14 19 29 40 45 44 44 48 52 55 66 68 75 83 81 80 71 65 67 61 74 107 93 118 124 113 117 97 105 90 76
10 15 17 9 12 7 12 12 27 32 10 26 47 42 35 30 19 7 9 27 32 33 38 44 53 55 44 52 62 68 74 79 78 81 89 80 77 82 80 91 140 89 128 122 118 113 106 104 95
16 14 11 9 12 13 25 10 15 18 16 20 29 49 41 28 19 4 13 23 33 38 43 50 53 50 62 49 56 64 73 70 73 81 93 88 87 91 79 101 108 144 118 123 113 119 108 109 99
11 10 17 10 4 8 38 17 17 12 22 27 15 49 41 24 2 5 17 32 44 47 51 55 61 62 61 66 62 62 68 74 77 82 88 90 92 98 77 85 100 87 100 95 119 116 112 102 95
8 6 6 6 4 13 9 13 28 12 18 27 27 43 27 8 3 12 26 38 41 42 43 50 56 61 63 64 66 66 63 70 75 78 91 85 94 102 77 74 91 73 87 109 99 107 114 105 108
16 19 10 10 6 7 13 11 5 20 38 50 39 23 13 4 10 17 26 30 34 38 46 56 61 64 66 67 68 66 60 63 71 74 84 84 93 101 78 77 88 86 89 122 71 101 107 110 108
7 11 12 6 10 4 10 6 6 16 17 24 27 25 16 8 7 14 24 30 36 43 47 56 65 69 75 76 74 71 70 67 64 71 76 90 93 91 74 75 78 78 91 110 79 95 101 99 113
7 3 7 3 6 10 10 14 8 12 12 12 11 3 4 1 6 15 21 26 30 35 50 66 67 75 76 68 65 65 71 73 76 73 76 80 92 83 72 73 79 90 87 113 110 100 101 109 102
6 4 6 7 9 9 3 11 11 12 16 14 12 22 19 12 6 9 14 24 34 48 63 69 70 70 79 74 72 69 70 73 70 73 76 75 84 77 68 55 73 78 92 112 91 110 115 115 105
18 20 18 9 9 9 5 12 11 16 11 5 19 33 11 4 5 9 19 31 44 58 65 67 62 78 69 65 63 72 72 71 65 65 65 68 70 71 69 48 68 74 108 116 128 94 124 123 115
Wind_Direction_850mb
251 172 18 336 28 76 311 42 129 44 48 79 82 91 86 80 68 118 28 1 6 23 110 161 164 155 150 148 147 147 143 132 136 149 153 151 151 154 156 156 154 148 145 139 137 136 132 125 112
260 105 320 286 93 45 292 9 70 60 45 66 87 94 83 90 83 55 30 30 4 21 77 61 175 170 158 157 153 156 163 151 142 154 159 160 158 160 162 161 159 155 152 146 145 144 140 130 117
104 328 301 152 191 176 149 20 35 83 58 46 27 69 83 105 69 61 42 28 3 74 70 50 189 188 172 165 164 165 175 177 168 166 169 169 167 167 170 171 167 164 159 158 155 155 150 139 123
22 309 263 100 260 304 133 63 22 69 59 46 81 69 76 90 70 55 72 43 1 38 39 25 91 211 198 179 173 180 185 192 196 189 185 181 178 177 179 181 179 174 167 168 167 169 164 153 135
319 262 251 241 268 109 53 40 62 66 57 68 71 72 73 62 67 64 72 34 350 358 28 5 340 226 224 207 192 189 197 202 207 207 203 197 190 187 188 191 191 189 183 182 183 182 182 172 155
290 248 340 269 143 94 44 50 66 60 62 52 49 65 72 42 38 44 45 40 2 315 335 143 42 23 282 236 221 207 203 210 215 217 216 211 203 198 197 199 200 200 200 197 198 197 195 189 175
207 36 258 293 118 57 87 75 70 64 62 55 66 5 56 37 40 41 45 56 359 301 354 145 74 22 338 327 250 228 215 211 216 222 225 221 214 208 206 206 208 208 211 211 207 207 204 202 193
248 94 300 311 156 120 116 72 71 60 59 31 27 47 32 30 34 40 61 31 38 28 45 28 44 10 0 336 242 234 228 219 215 220 229 230 224 217 213 212 214 214 216 218 216 215 214 211 205
255 13 304 27 66 67 51 59 70 79 86 54 85 70 47 19 28 30 24 20 46 36 17 11 18 7 354 349 280 224 234 231 225 219 224 231 229 225 220 217 217 216 218 220 220 221 219 217 214
162 130 314 85 62 32 62 51 92 64 23 337 70 58 33 8 18 18 18 352 6 28 47 58 95 1 1 350 327 267 245 242 238 229 227 229 231 229 229 224 222 222 222 223 224 224 225 219 217
224 188 43 87 80 38 9 62 59 55 289 90 71 57 25 5 356 356 19 23 340 351 358 18 31 36 24 236 277 284 285 267 252 244 235 233 234 233 231 227 224 225 225 225 226 224 225 222 214
24 301 139 148 101 63 317 61 336 291 182 150 94 59 333 298 329 357 321 338 346 318 312 342 355 329 308 319 279 290 272 274 269 269 251 240 238 236 236 234 230 230 230 230 229 229 228 224 215
195 267 192 216 232 203 246 341 263 301 283 132 123 162 261 300 67 31 80 109 305 312 307 292 302 325 321 302 294 286 275 259 263 267 269 251 241 240 238 237 237 234 233 233 234 232 229 224 215
330 335 314 305 280 235 173 240 335 262 166 131 149 189 247 99 78 128 33 25 340 323 309 292 283 285 283 291 287 277 273 258 260 251 261 264 253 242 239 236 238 241 240 237 236 233 229 223 211
252 318 297 267 235 208 99 317 232 261 172 148 187 231 156 129 102 33 347 317 310 306 300 285 279 275 276 278 282 279 275 271 274 262 255 257 259 253 241 237 235 240 240 240 243 233 227 217 204
297 274 272 263 192 162 123 269 287 145 171 188 202 149 140 115 113 330 327 323 308 297 298 297 291 284 287 285 281 281 282 281 275 275 264 249 245 250 252 238 235 235 239 237 236 229 219 213 207
249 244 215 281 156 149 134 205 253 282 284 230 182 173 145 125 120 82 319 288 289 295 301 303 306 308 304 297 293 289 284 283 289 285 275 271 246 245 246 248 236 234 230 231 233 225 217 210 208
345 207 308 327 301 187 222 227 221 242 258 249 204 165 149 143 139 337 304 294 306 311 309 309 306 306 309 307 302 302 294 294 291 290 293 275 273 241 250 246 243 230 230 226 228 225 220 218 209
49 323 308 303 299 318 284 273 272 281 281 263 237 159 157 160 184 231 259 312 315 317 314 309 310 310 306 302 302 304 301 298 295 289 282 282 284 283 237 232 241 234 230 227 224 222 220 215 213
320 319 282 286 284 295 325 301 282 251 245 261 218 163 162 164 184 225 300 302 319 327 321 318 315 311 304 298 298 301 302 297 297 292 287 280 274 273 268 252 242 239 228 229 223 222 216 211 208
288 247 271 259 310 333 329 291 272 256 252 236 191 167 168 172 193 225 294 298 310 317 310 307 319 320 304 295 295 299 302 295 290 290 287 278 275 268 268 257 253 235 229 223 223 218 217 206 202
269 268 276 339 11 280 43 285 294 286 229 154 159 165 171 186 179 228 276 310 321 328 321 312 300 300 318 308 302 302 304 301 288 292 295 291 290 283 265 266 248 259 223 217 221 218 217 215 209
239 48 5 0 323 333 274 269 270 250 196 181 173 179 184 160 159 214 305 322 323 314 311 310 307 296 297 310 312 306 309 297 296 294 296 300 294 294 278 258 263 260 223 213 216 217 219 218 214
42 18 333 300 219 283 255 197 274 262 204 176 147 152 140 140 99 292 313 329 317 310 311 307 307 308 301 298 298 310 305 304 298 298 297 299 304 295 285 261 261 272 249 213 212 217 217 216 212
109 90 323 331 174 225 275 213 229 309 122 129 126 124 125 126 176 315 325 331 309 311 310 315 316 311 307 301 301 298 306 301 298 297 300 297 302 295 280 264 254 250 231 228 207 211 217 217 216
199 164 170 232 250 289 293 252 328 86 81 100 108 120 149 159 318 316 334 327 308 311 311 309 311 308 306 305 299 301 300 306 302 297 297 297 293 293 272 263 255 240 236 222 218 219 218 219 220
279 198 217 62 336 332 247 282 73 108 111 131 151 165 169 335 328 351 336 312 313 315 312 311 311 306 306 309 305 304 300 293 299 301 297 295 293 301 274 257 246 243 233 220 217 219 221 221 220
173 64 53 7 214 252 263 246 183 135 163 132 113 204 201 93 284 313 319 313 315 309 313 315 312 310 317 320 315 311 306 299 287 289 291 293 298 303 277 252 251 232 228 208 217 219 217 221 221
169 225 203 159 176 195 310 279 135 110 133 141 207 247 237 198 275 311 322 312 310 315 318 319 317 316 316 314 314 312 309 306 292 282 286 299 302 300 279 261 245 242 217 206 213 215 215 219 219
203 197 180 144 239 217 199 265 44 115 123 178 274 294 137 57 110 350 325 311 315 320 318 322 314 320 319 319 316 315 314 311 302 291 286 295 302 304 307 259 244 240 214 206 209 218 211 218 217